GFSNE_250_spd_057.txt.gz
Wind_Speed
18 19 19 23 29 27 29 33 30 30 33 37 38 30 16 16 18 19 13 4 5 14 20 20 18 17 19 23 20 16 20 23 27 25 29 35 39 39
17 19 19 21 27 24 25 29 30 28 27 31 35 32 24 18 14 13 13 11 6 2 14 15 17 20 24 26 25 26 27 29 26 27 31 36 38 37
15 18 20 21 25 24 23 25 29 28 28 26 29 32 32 25 20 17 15 10 6 4 5 10 15 19 25 30 29 28 32 26 32 32 33 38 37 37
13 15 19 20 23 24 22 23 25 27 27 27 26 27 29 29 24 19 20 20 15 11 11 12 15 17 19 18 22 28 31 32 31 35 36 38 41 39
13 13 17 20 23 23 21 20 21 24 26 26 25 25 26 28 27 23 17 13 10 9 9 8 10 12 14 15 19 23 25 27 32 38 41 43 47 39
15 15 17 20 23 24 22 19 19 20 23 24 25 25 25 23 24 22 21 20 15 6 7 9 9 7 7 9 13 17 20 25 30 35 36 39 42 48
20 20 21 22 23 25 25 21 18 19 21 22 22 24 24 23 22 21 19 17 12 4 12 11 10 11 12 15 18 20 20 23 26 26 28 31 35 35
26 24 24 24 24 26 26 25 21 18 19 21 21 22 23 22 21 22 20 15 11 16 11 13 15 16 15 19 19 21 25 25 25 23 30 30 34 34
29 29 27 27 27 28 29 29 27 22 21 20 21 23 22 22 23 22 20 17 11 13 21 15 23 25 25 25 25 28 30 35 36 30 30 31 37 35
33 32 30 29 29 30 31 32 31 29 26 26 22 23 25 24 25 25 26 24 20 16 24 29 25 30 32 33 33 32 33 36 42 43 41 40 37 38
39 36 35 35 34 34 35 35 34 33 32 32 31 27 26 27 26 27 28 32 31 26 26 34 35 34 39 38 39 40 41 43 44 47 51 51 47 51
40 40 39 39 38 39 39 38 38 38 36 36 36 36 32 30 31 30 29 31 35 39 33 33 36 38 38 41 41 43 43 44 46 50 54 56 56 56
41 41 42 42 42 43 42 41 41 40 39 41 40 40 39 34 34 35 35 33 34 37 39 42 41 40 39 37 41 42 44 47 50 54 57 61 64 63
39 40 40 40 41 42 43 45 45 44 44 42 43 44 42 41 41 39 37 37 37 41 46 46 43 41 42 41 42 44 46 50 54 59 62 63 66 64
37 36 36 36 36 37 40 43 43 43 46 45 45 45 44 43 42 40 41 44 45 47 50 49 46 44 44 41 43 45 46 53 56 58 63 66 66 63
43 41 38 35 34 31 32 35 38 41 44 44 44 44 44 42 38 41 46 49 51 54 52 48 45 43 44 43 44 46 49 52 56 60 63 62 62 60
50 47 43 41 39 37 38 38 40 42 45 45 45 43 40 39 42 46 51 53 54 49 47 46 42 41 44 47 47 48 51 57 59 61 62 60 61 55
54 52 48 47 44 43 43 44 46 45 44 42 40 41 42 45 49 53 55 53 46 42 40 43 44 47 47 48 51 53 56 57 60 62 64 63 59 58
54 55 55 54 52 50 50 51 50 51 49 46 46 46 48 52 54 55 49 43 42 44 44 45 49 49 51 54 55 57 58 60 60 59 61 63 61 57
53 54 54 54 55 56 55 52 54 47 46 47 49 51 52 51 48 44 43 45 46 48 49 49 50 53 54 56 58 59 59 60 59 60 65 60 62 61
46 49 51 54 51 51 51 50 50 52 55 52 50 47 45 44 46 47 48 49 49 50 52 53 53 55 56 58 58 62 62 62 65 64 63 64 65 64
47 49 50 50 51 52 52 53 54 53 50 46 43 44 46 47 49 52 53 54 54 54 54 56 56 58 59 60 59 61 63 65 66 65 64 65 66 65
50 49 49 50 51 50 50 50 48 46 48 48 49 49 51 54 55 57 58 57 57 57 58 58 60 61 62 64 65 65 66 67 68 66 65 66 66 57

GFSNE_250_spd_060.txt.gz
Wind_Speed
15 17 19 23 28 27 27 30 31 30 29 33 35 33 28 23 20 19 18 11 4 11 22 23 18 18 17 21 25 29 33 37 38 37 36 37 36 32
14 15 17 20 24 26 25 26 28 30 29 27 28 30 30 24 23 22 18 12 11 9 6 13 20 20 19 22 25 31 38 40 38 34 38 40 38 37
11 13 15 17 20 23 23 23 25 27 29 28 25 25 26 27 24 20 20 20 13 6 6 6 8 12 16 19 22 24 28 27 30 35 34 40 42 44
10 10 12 15 17 19 21 20 22 24 25 28 27 25 24 23 23 23 21 19 16 18 16 12 9 12 13 16 20 20 24 24 25 27 30 35 39 39
14 12 12 13 15 17 18 19 19 20 22 24 25 26 25 22 21 23 23 20 14 8 8 6 5 7 9 12 12 14 17 20 22 26 25 30 33 38
19 18 16 17 16 16 18 19 19 18 19 21 22 24 25 24 22 19 21 23 15 14 18 14 10 10 11 13 15 17 19 19 21 23 24 27 32 39
23 22 22 22 22 20 19 19 20 19 18 20 22 22 24 25 25 23 17 16 19 17 15 17 15 13 14 17 21 23 24 26 25 24 28 30 32 42
27 25 25 25 25 25 24 23 21 22 21 20 22 23 23 22 23 24 22 17 17 20 21 21 25 25 24 25 27 28 33 36 36 40 39 39 42 44
30 31 31 31 30 28 28 26 25 23 24 23 22 23 24 25 26 23 23 22 22 22 24 25 31 34 33 35 36 38 40 40 40 41 41 42 44 47
32 34 34 35 34 34 33 31 30 29 27 28 27 26 26 26 27 29 28 26 27 26 28 28 31 37 41 39 38 41 43 44 43 42 44 46 47 53
34 35 36 35 34 35 35 35 35 33 32 31 31 30 30 29 29 30 31 31 29 30 30 33 32 37 41 44 46 45 43 43 43 43 45 46 48 52
38 36 36 36 37 37 38 38 37 36 34 33 34 33 33 33 33 34 35 34 35 36 31 35 36 37 45 46 45 43 42 44 45 45 47 51 53 53
34 34 35 35 36 36 36 36 35 34 35 36 35 36 37 37 38 38 39 36 38 38 35 37 40 43 47 46 47 44 40 42 44 47 50 51 55 58
36 36 36 35 33 32 32 31 31 30 30 31 34 35 36 38 37 38 39 37 35 36 37 41 45 47 48 42 37 40 41 41 43 46 49 54 58 60
43 43 43 40 39 37 34 30 29 29 30 31 33 34 35 38 39 37 38 38 34 34 39 44 48 48 39 34 32 31 36 42 44 47 51 55 56 57
44 44 44 44 45 42 38 35 34 35 34 36 37 37 38 37 37 37 37 37 39 41 43 47 47 38 37 37 37 37 39 42 47 50 51 52 54 54
44 44 45 46 46 45 43 41 41 40 41 41 41 41 42 42 41 39 39 40 43 46 47 42 36 38 40 41 43 43 44 45 47 48 51 54 54 53
45 46 44 44 44 43 42 44 44 46 48 48 47 47 47 48 45 43 44 44 47 47 41 37 39 41 43 44 46 46 47 49 50 50 51 50 54 56
47 44 43 40 37 37 41 41 43 44 47 46 47 48 45 45 39 45 46 46 41 38 38 39 42 45 47 50 51 52 50 51 51 51 51 51 52 52
46 49 46 42 41 37 38 43 42 40 41 40 43 43 44 46 49 48 43 37 37 38 40 42 46 48 50 51 52 53 51 50 52 53 55 56 56 58
47 45 43 39 42 44 45 43 41 41 41 41 43 45 44 46 44 41 38 39 41 42 46 45 49 50 51 52 51 52 54 55 57 59 60 61 60 61
42 37 45 44 45 46 45 44 43 45 44 43 45 45 46 45 43 43 44 45 47 48 49 50 52 54 55 54 54 54 58 59 60 63 65 67 67 65
51 47 50 46 46 53 53 52 49 48 48 50 49 50 47 45 46 47 48 51 53 53 54 56 58 56 59 58 60 59 61 63 65 67 70 71 70 69

GFSNE_250_spd_063.txt.gz
Wind_Speed
14 15 17 20 23 23 24 26 28 31 30 29 30 30 30 30 29 29 23 14 11 4 11 19 20 23 18 20 20 23 28 30 32 35 33 34 35 37
12 11 13 16 19 22 22 22 24 25 28 30 28 25 25 26 24 25 25 22 15 12 12 9 5 9 14 17 19 18 20 26 29 27 29 31 33 34
10 11 11 14 16 18 20 22 22 22 24 25 28 28 25 22 22 23 23 18 18 18 13 6 6 8 12 14 17 20 23 21 23 26 27 30 32 36
10 12 12 12 15 17 18 19 21 21 20 22 23 25 27 26 24 20 20 19 17 18 13 12 11 12 13 14 16 16 21 21 23 26 29 31 33 36
13 15 16 16 16 18 19 19 18 19 19 19 19 21 21 22 23 23 21 17 18 20 15 14 11 12 14 14 16 17 21 23 27 30 30 34 37 39
15 15 17 19 19 20 21 21 20 20 19 19 19 19 20 20 20 19 19 21 20 17 20 19 20 18 19 21 23 24 27 29 33 35 35 37 40 41
18 17 18 19 20 21 22 23 22 21 20 20 21 20 20 19 21 21 20 18 18 21 19 23 22 22 23 26 29 33 35 35 35 37 39 41 41 39
21 22 22 22 22 23 25 26 26 25 23 21 21 23 23 22 21 22 22 22 20 22 22 21 25 26 26 25 29 34 38 40 40 41 40 39 39 39
25 25 26 25 25 25 26 27 28 26 26 26 26 24 22 23 23 23 24 25 24 25 30 29 30 29 28 28 32 36 40 42 41 39 38 38 40 41
29 29 28 28 28 27 28 27 28 29 28 28 27 27 27 25 24 25 26 27 28 27 29 34 36 36 34 35 38 41 45 45 42 38 38 39 40 42
30 31 30 29 29 29 29 30 29 30 30 31 31 30 28 27 27 28 28 29 32 33 29 33 35 38 38 39 42 46 49 43 37 35 37 39 41 44
27 28 28 27 28 28 27 25 25 26 29 29 29 28 28 29 28 28 30 33 33 36 31 33 32 35 40 42 45 47 43 37 35 34 37 40 43 46
29 29 30 28 27 28 29 29 28 26 26 26 27 27 26 27 28 28 29 30 31 33 31 33 34 31 36 41 42 36 31 32 34 37 39 43 45 47
32 32 34 34 34 33 35 34 32 30 28 27 29 30 30 30 30 30 30 31 30 31 33 33 32 35 38 43 36 32 31 33 35 39 41 44 46 48
33 34 37 36 37 38 39 37 35 34 33 34 36 37 37 35 35 35 36 34 33 33 33 34 35 37 40 36 29 33 36 37 38 39 42 44 46 48
36 36 37 38 39 40 39 38 36 36 35 37 38 41 40 41 40 42 45 42 40 35 34 38 38 41 36 30 30 34 36 38 39 40 42 44 43 44
38 39 39 39 40 40 39 37 35 33 33 35 39 40 40 40 41 44 45 42 41 35 33 40 40 33 31 33 34 37 38 39 41 43 42 42 43 45
42 42 42 40 40 40 39 36 32 30 30 34 36 37 38 37 37 39 39 38 38 41 42 36 31 29 32 37 39 40 40 42 42 42 43 42 44 45
43 42 43 45 46 44 40 39 31 27 30 32 35 35 32 32 34 35 39 39 41 41 34 29 32 33 36 42 44 41 42 44 43 43 46 47 46 49
44 42 42 48 47 43 43 49 44 40 35 35 34 35 33 31 33 35 38 38 36 36 36 35 36 36 39 42 46 46 46 49 48 47 50 53 55 55
42 46 46 45 49 50 47 41 38 39 40 35 35 36 39 38 36 35 36 36 39 39 38 39 39 40 42 44 49 51 51 53 53 53 53 54 58 61
45 46 43 46 55 56 55 43 41 45 42 40 44 43 51 56 44 40 41 43 44 44 44 44 45 46 46 47 50 53 55 57 58 59 58 57 60 63
36 30 24 29 47 52 52 52 52 51 58 60 61 60 57 55 52 54 55 49 49 49 50 50 50 50 50 49 52 56 59 62 62 63 63 65 65 66

GFSNE_250_spd_069.txt.gz
Wind_Speed
13 14 15 17 20 22 25 26 25 25 26 27 28 29 31 30 27 24 23 24 22 19 15 12 6 4 7 10 14 15 20 24 27 28 31 36 37 37
10 12 13 16 18 20 21 22 23 23 23 24 24 24 24 25 26 26 25 25 22 18 17 13 11 10 9 11 14 18 21 25 30 32 35 36 36 35
9 10 13 13 15 16 18 20 21 21 22 21 20 21 22 21 21 21 22 21 19 19 16 14 16 14 15 15 17 21 26 30 29 32 34 35 35 30
12 12 13 14 13 14 15 17 19 21 22 22 22 19 18 18 19 19 18 17 18 18 18 18 18 18 19 22 26 28 28 27 33 33 38 40 37 31
14 15 14 14 15 16 17 16 17 19 20 22 22 21 21 20 18 17 17 16 17 19 19 22 23 24 25 26 27 28 29 30 33 40 44 38 32 28
15 15 16 16 17 18 18 18 18 19 19 19 19 20 20 20 21 21 19 20 20 19 23 22 25 27 27 27 28 29 30 31 36 44 40 31 28 26
18 17 16 17 18 18 19 20 20 20 20 19 20 21 20 21 21 23 23 21 23 26 24 27 26 27 29 29 29 30 29 33 36 42 32 26 25 25
18 18 17 17 18 19 20 20 20 20 20 20 21 23 23 22 22 23 23 23 22 24 24 22 26 29 31 28 28 28 31 35 38 34 27 26 26 26
17 17 18 19 20 20 19 20 19 19 19 18 18 20 20 22 23 23 23 21 21 24 26 26 26 27 29 27 27 29 33 36 38 29 26 26 27 29
14 18 18 18 19 19 20 17 18 17 16 18 18 19 19 21 23 23 23 22 22 25 26 29 30 29 30 30 30 32 36 37 35 29 29 29 33 34
13 13 14 17 17 19 21 21 20 17 20 24 23 21 21 22 23 23 25 26 27 28 29 28 32 31 30 31 31 33 37 36 29 28 32 35 34 33
13 14 15 16 16 20 23 22 20 20 24 25 27 27 24 23 26 26 23 23 27 29 29 29 32 33 29 31 29 33 37 30 28 30 33 34 35 34
14 15 16 17 18 20 23 24 22 23 26 27 27 26 24 24 23 25 25 23 24 25 27 26 27 29 30 32 31 31 28 27 28 29 31 34 33 33
15 14 14 16 18 18 22 24 21 23 26 27 25 24 25 24 22 21 20 19 19 19 26 23 24 29 29 28 29 29 28 27 29 30 30 32 33 34
19 16 17 19 20 19 18 20 21 22 23 25 27 24 25 27 25 20 14 8 12 14 22 20 23 28 33 32 31 27 28 31 32 32 33 34 34 34
23 19 20 24 25 25 23 22 23 24 26 27 26 28 28 26 25 21 14 9 13 17 17 22 27 25 32 32 29 30 31 34 36 34 36 38 40 40
26 25 27 30 31 29 27 27 28 29 31 33 28 27 27 27 25 20 17 16 14 17 23 24 27 29 30 31 29 33 38 38 40 42 41 41 44 46
28 31 33 33 36 32 31 33 34 35 39 39 39 36 35 35 28 24 19 16 16 15 24 25 26 30 31 32 34 32 35 38 38 41 45 46 48 51
34 36 36 37 39 36 34 35 36 37 36 38 36 38 40 42 41 35 28 18 17 18 24 25 27 29 30 29 36 34 37 42 45 44 47 48 49 51
39 41 40 42 44 43 42 39 38 36 33 33 36 37 37 35 41 41 30 30 29 20 28 30 31 36 38 38 40 40 42 50 55 52 51 56 55 55
44 46 46 48 46 48 44 42 42 41 32 34 41 34 33 41 38 31 33 34 37 34 34 41 45 47 46 48 50 46 45 51 57 57 57 60 63 64
50 50 49 53 49 49 47 42 40 38 37 32 34 34 34 37 40 43 41 44 47 49 51 53 56 58 59 57 57 57 51 57 61 62 62 65 67 67
54 50 47 51 51 48 51 47 44 35 35 39 38 39 45 44 31 47 46 37 67 67 65 61 61 65 68 65 72 69 66 64 60 65 66 71 73 75

GFSNE_250_spd_072.txt.gz
Wind_Speed
10 13 15 16 17 19 21 22 23 24 24 25 26 26 26 26 27 27 25 26 22 19 17 16 16 14 14 15 19 23 27 28 29 33 38 42 42 36
9 9 10 12 13 15 16 18 20 21 21 21 21 22 23 24 24 24 24 24 22 19 18 19 19 19 20 21 22 24 27 29 31 35 41 46 35 23
10 11 11 12 12 13 14 14 15 16 17 19 18 18 18 18 18 18 19 19 18 18 19 21 21 21 21 20 22 27 29 30 33 37 44 33 26 23
13 12 11 11 11 12 13 14 15 15 15 14 14 15 15 15 16 15 14 14 15 17 19 20 21 22 24 27 28 29 30 31 33 37 36 29 25 25
14 14 12 10 10 11 12 12 13 14 14 14 13 13 14 14 14 14 14 13 13 17 17 20 22 23 26 29 30 26 28 30 32 37 28 28 27 27
15 15 13 12 11 10 11 13 13 13 13 14 14 15 14 15 16 18 16 17 18 17 20 21 23 24 24 24 24 23 25 28 32 31 25 25 25 24
15 15 14 13 12 11 11 12 13 13 14 13 14 15 14 14 16 18 19 18 18 18 18 20 22 21 22 23 22 22 25 28 29 26 25 25 25 26
16 15 14 13 13 13 14 13 13 12 13 13 12 13 14 14 17 18 18 15 16 16 16 15 18 19 19 20 20 21 26 27 26 24 25 26 27 26
15 15 15 13 13 13 15 13 14 13 12 12 11 14 15 17 17 16 14 14 15 15 14 15 16 19 16 20 20 20 24 23 23 24 25 26 27 27
18 16 17 16 15 14 16 14 15 14 14 17 17 18 16 19 21 19 18 15 14 17 17 18 18 19 14 18 19 19 20 21 24 24 24 25 27 28
15 16 16 15 12 15 15 14 15 13 14 16 17 17 18 18 19 18 15 13 12 14 15 17 17 18 17 18 18 19 21 24 24 24 25 28 28 29
10 12 14 14 13 14 14 13 12 11 16 16 15 16 18 19 18 16 9 7 11 10 9 12 16 21 19 17 17 20 24 27 27 25 25 29 28 30
10 10 9 10 10 12 16 12 8 11 17 16 15 14 16 19 18 17 12 8 1 11 9 9 14 18 19 19 19 20 23 27 28 28 29 32 33 33
13 10 10 10 11 13 17 14 12 11 14 17 18 17 16 19 21 22 19 13 8 2 7 9 12 12 14 15 18 19 19 24 32 38 36 33 33 36
18 15 12 12 15 18 19 18 16 16 16 17 19 19 19 21 24 23 22 16 16 10 9 10 15 14 11 12 15 18 19 20 24 28 33 35 39 42
24 17 17 20 22 23 21 20 20 20 20 21 21 23 25 26 27 25 22 17 19 18 17 15 16 16 15 14 12 15 20 18 21 28 32 35 36 36
26 28 27 26 24 25 27 23 20 22 23 23 24 27 27 26 27 28 34 26 22 20 26 22 21 19 15 12 11 16 22 26 24 27 31 33 35 37
32 33 33 31 30 27 27 26 26 25 27 28 26 22 21 24 26 28 29 31 33 28 25 25 25 20 13 14 13 18 27 30 31 29 31 35 35 36
37 36 37 36 33 30 29 28 29 30 28 29 29 25 22 26 30 30 33 32 33 36 39 33 33 20 13 15 21 25 32 37 37 41 39 43 40 38
43 42 42 40 34 34 34 34 33 31 31 30 30 29 26 28 32 27 26 33 37 37 32 36 35 32 28 21 24 36 41 44 45 49 62 51 50 44
48 49 46 47 42 39 41 37 38 37 34 33 34 31 33 33 31 30 30 28 32 36 37 39 43 43 43 33 40 41 45 49 52 59 65 70 58 51
57 56 55 48 48 42 42 45 45 41 38 37 37 36 38 42 36 32 34 39 37 34 37 48 49 44 46 53 49 53 53 54 58 69 74 73 70 56
64 62 59 48 45 40 43 40 44 42 43 42 40 41 39 39 36 31 34 36 28 33 35 40 51 62 60 61 60 67 62 64 70 77 76 78 75 72

GFSNE_250_spd_075.txt.gz
Wind_Speed
11 12 13 14 14 14 15 16 18 18 18 20 21 22 23 23 22 22 21 21 21 17 16 16 17 18 18 17 20 23 26 28 28 35 34 27 22 22
11 11 12 11 12 12 12 12 13 14 15 16 17 17 18 18 18 18 18 18 17 15 16 16 17 17 17 20 22 23 26 26 29 32 28 23 23 25
10 12 12 11 11 11 12 13 14 14 13 13 13 12 13 13 12 13 14 14 14 13 13 14 16 17 17 19 21 21 24 24 28 25 24 25 27 27
9 9 11 11 10 11 11 12 13 14 14 13 13 13 12 12 11 10 10 11 11 13 15 16 15 15 18 20 18 19 21 23 26 22 25 26 27 28
12 10 9 9 9 9 9 12 12 12 13 13 14 14 14 15 14 12 11 9 10 10 11 13 14 17 21 20 18 19 21 23 23 21 22 23 26 26
11 12 10 8 9 8 9 10 11 11 10 11 12 12 12 13 15 15 14 12 11 9 11 12 15 17 17 19 19 18 20 20 20 21 21 23 23 24
15 14 12 10 9 8 8 10 10 12 12 10 9 10 11 12 14 12 11 9 9 12 16 14 16 19 17 17 16 16 19 19 21 23 22 26 27 29
15 15 14 12 11 10 10 9 10 11 11 10 9 11 15 12 13 11 11 13 14 14 10 14 16 16 14 14 14 16 19 21 23 25 26 28 31 33
13 14 15 15 13 12 11 10 8 9 11 7 8 10 12 14 13 11 9 10 10 12 14 13 14 13 9 12 14 18 19 21 25 29 31 32 34 35
13 13 15 16 15 14 14 8 8 5 8 7 6 8 10 13 13 10 5 7 9 12 13 12 11 10 12 14 16 16 18 19 22 24 23 24 31 35
10 8 9 12 13 13 12 9 6 4 7 6 6 7 9 11 8 6 5 6 7 11 14 12 13 10 12 14 15 22 21 17 13 12 15 17 24 27
10 8 7 5 7 11 10 8 5 5 10 7 4 5 7 9 7 3 4 3 6 6 7 9 8 8 10 13 16 19 21 16 16 16 15 20 26 30
13 11 8 7 8 10 10 9 3 8 10 9 7 5 6 9 10 8 8 10 12 8 3 3 4 2 6 13 13 14 18 20 21 21 20 21 24 28
18 15 13 11 11 12 15 11 9 11 11 11 11 8 8 10 12 12 14 13 18 19 14 13 9 10 7 6 3 7 12 15 16 17 19 22 21 24
22 18 18 17 17 20 21 14 11 12 12 15 16 15 16 16 17 19 20 17 17 20 23 20 19 16 15 11 12 10 7 8 14 15 19 24 26 27
30 24 23 26 28 26 21 18 15 15 15 17 16 17 19 21 21 17 16 18 20 19 23 27 26 25 21 17 16 17 14 12 11 18 17 28 34 39
36 34 31 28 28 28 27 25 21 19 20 20 21 20 19 20 17 16 18 22 25 26 22 25 30 32 30 21 18 15 13 13 11 13 25 29 40 48
44 46 38 33 32 31 30 28 27 25 23 24 26 25 22 20 20 20 23 27 29 32 31 27 26 30 34 34 30 23 18 13 12 16 21 27 39 50
51 55 48 43 40 37 34 32 30 29 27 29 29 27 27 24 23 26 21 27 33 31 32 33 34 33 34 35 34 30 24 20 24 29 22 31 51 52
56 59 55 52 46 44 40 37 36 34 32 30 31 31 29 29 29 27 31 35 37 32 30 32 35 36 35 30 34 38 36 32 28 27 34 45 51 53
59 59 59 56 50 49 49 46 44 40 37 36 37 37 33 32 32 33 33 35 39 37 35 37 34 32 33 34 38 42 44 49 48 36 42 49 53 54
66 63 64 61 61 57 54 50 48 49 43 37 34 34 36 36 37 37 37 39 41 37 36 33 31 34 31 31 35 38 46 54 57 65 68 69 57 59
68 64 64 64 58 56 59 56 53 51 43 40 33 34 35 35 40 39 39 39 40 37 41 31 31 33 38 42 48 52 55 58 53 62 70 67 65 64